Total_Precipitation_Accumulation
0.17 0.25 0.32 0.33 0.28 0.22 0.19 0.22 0.35 0.34 0.41 0.53 0.69 0.71 0.88 0.95 0.89 0.83 0.76 0.72 0.79 0.94 0.96 0.97 1.04 1.05 1.14 1.17 1.39 1.45 1.52 1.62 1.69 1.62 1.61 1.56 1.50 1.45 1.51 1.58 1.55 1.74 1.97 2.06
0.16 0.19 0.24 0.26 0.26 0.19 0.15 0.13 0.16 0.29 0.53 0.56 0.61 0.67 0.81 0.82 0.80 0.81 0.88 0.91 0.94 1.00 1.08 0.99 0.94 0.88 0.83 0.92 1.15 1.34 1.48 1.41 1.41 1.46 1.38 1.34 1.36 1.34 1.40 1.49 1.60 1.78 1.82 1.85
0.26 0.22 0.27 0.32 0.27 0.20 0.15 0.14 0.15 0.33 0.60 0.61 0.64 0.72 0.84 0.91 0.92 0.81 0.81 0.87 0.98 1.05 1.06 0.91 0.86 0.84 0.87 0.92 1.06 1.19 1.30 1.37 1.44 1.48 1.42 1.36 1.40 1.51 1.52 1.66 1.71 1.70 1.64 1.66
0.38 0.45 0.59 0.40 0.27 0.22 0.23 0.21 0.23 0.29 0.39 0.48 0.64 0.68 0.71 0.78 0.91 0.92 0.92 1.00 1.06 1.03 0.98 0.94 0.90 0.95 0.99 0.99 1.07 1.19 1.22 1.32 1.43 1.46 1.42 1.43 1.42 1.48 1.59 1.76 1.82 1.73 1.57 1.57
0.52 0.61 0.53 0.44 0.38 0.35 0.39 0.40 0.37 0.46 0.45 0.52 0.59 0.67 0.83 0.72 0.76 0.79 0.94 0.99 1.05 1.06 1.08 1.09 1.05 1.12 1.15 1.11 1.15 1.27 1.37 1.45 1.43 1.48 1.53 1.58 1.61 1.65 1.72 1.75 1.76 1.82 1.73 1.65
0.68 0.82 0.82 0.68 0.57 0.51 0.53 0.87 0.66 0.63 0.65 0.74 0.79 0.93 1.13 0.92 0.82 0.89 0.96 0.93 0.97 0.97 1.05 1.16 1.17 1.29 1.33 1.34 1.35 1.42 1.53 1.63 1.66 1.76 1.84 1.82 1.93 2.05 2.07 2.06 2.01 2.06 1.94 1.86
0.88 1.00 1.00 0.79 0.67 0.63 1.06 1.27 0.84 0.75 0.81 0.81 0.87 0.99 1.03 1.03 1.03 1.00 0.84 0.79 0.85 0.95 0.96 1.07 1.26 1.46 1.61 1.59 1.52 1.61 1.74 1.89 2.04 2.14 2.32 2.46 2.55 2.45 2.36 2.36 2.37 2.20 2.06 2.03
1.24 1.41 1.34 0.85 0.80 1.15 1.40 1.07 1.08 0.96 0.91 0.91 0.86 0.94 1.02 1.02 0.98 0.87 0.85 0.84 0.89 1.02 1.02 1.07 1.26 1.45 1.63 1.66 1.68 1.85 2.01 2.20 2.32 2.52 2.61 2.71 3.06 3.09 3.07 3.00 2.73 2.46 2.39 2.26
1.38 1.48 1.22 1.05 1.21 1.30 1.28 1.26 1.32 1.35 1.17 1.07 1.00 1.01 1.04 0.98 0.89 0.82 0.83 0.84 0.90 1.05 1.16 1.20 1.31 1.54 1.81 1.87 1.92 2.05 2.20 2.40 2.55 2.63 2.76 2.89 3.03 3.02 3.03 2.97 2.72 2.54 2.52 2.43
1.52 1.62 1.41 1.33 1.33 1.37 1.34 1.29 1.31 1.41 1.53 1.50 1.25 1.09 1.09 1.05 0.96 0.94 1.00 0.97 1.00 1.11 1.25 1.43 1.54 1.72 1.98 2.04 2.17 2.25 2.31 2.43 2.53 2.63 2.76 2.92 3.04 2.97 2.91 2.85 2.80 2.73 2.69 2.63
1.94 1.92 1.73 1.58 1.61 1.71 1.60 1.46 1.50 1.52 1.57 1.63 1.33 1.11 1.06 1.13 1.11 1.09 1.18 1.22 1.21 1.25 1.36 1.58 1.74 1.90 1.97 2.02 2.23 2.42 2.42 2.46 2.56 2.58 2.62 2.74 2.82 2.91 2.85 2.81 2.83 2.84 2.80 2.80
2.18 2.00 2.06 1.90 1.59 1.67 1.79 1.65 1.65 1.62 1.54 1.41 1.30 1.23 1.25 1.26 1.25 1.25 1.35 1.38 1.38 1.36 1.43 1.61 1.80 1.99 2.09 2.22 2.36 2.49 2.53 2.45 2.51 2.56 2.57 2.60 2.58 2.49 2.50 2.45 2.40 2.31 2.38 2.43
1.78 1.68 1.82 1.81 1.72 1.74 1.92 1.79 1.55 1.50 1.49 1.48 1.42 1.31 1.31 1.31 1.24 1.29 1.36 1.37 1.41 1.46 1.48 1.57 1.71 1.92 2.13 2.37 2.58 2.73 2.72 2.68 2.67 2.76 2.82 2.78 2.76 2.68 2.61 2.51 2.35 2.12 1.99 1.97
1.72 1.74 1.84 1.91 1.98 1.89 1.90 1.79 1.55 1.40 1.37 1.43 1.46 1.35 1.30 1.31 1.30 1.36 1.46 1.40 1.35 1.42 1.53 1.57 1.63 1.82 2.04 2.24 2.48 2.68 2.71 2.77 2.77 2.75 2.81 2.83 2.80 2.77 2.68 2.54 2.43 2.23 1.97 1.83
1.85 1.91 2.02 2.01 2.04 2.00 1.94 1.80 1.78 1.58 1.43 1.41 1.46 1.47 1.42 1.40 1.42 1.38 1.39 1.29 1.23 1.28 1.39 1.56 1.68 1.75 1.91 2.00 2.10 2.30 2.43 2.52 2.57 2.55 2.52 2.58 2.66 2.63 2.55 2.46 2.33 2.18 1.92 1.82
1.88 1.96 1.97 1.97 2.02 2.01 1.95 1.88 1.80 1.63 1.51 1.54 1.58 1.47 1.45 1.47 1.43 1.34 1.28 1.31 1.37 1.40 1.44 1.59 1.65 1.75 1.96 2.11 2.24 2.31 2.39 2.50 2.47 2.38 2.26 2.19 2.20 2.25 2.22 2.24 2.20 2.11 1.99 1.85
2.03 2.08 2.05 2.04 1.96 1.93 1.98 1.99 1.86 1.67 1.54 1.52 1.56 1.53 1.39 1.29 1.27 1.26 1.23 1.23 1.26 1.35 1.46 1.61 1.66 1.63 1.84 2.14 2.33 2.33 2.27 2.25 2.29 2.21 2.08 1.99 2.01 2.09 2.17 2.21 2.15 2.02 1.91 1.83
1.97 1.94 1.91 1.95 1.94 1.89 1.88 1.86 1.91 1.77 1.60 1.52 1.46 1.47 1.47 1.39 1.24 1.16 1.15 1.19 1.23 1.23 1.26 1.40 1.51 1.56 1.65 1.86 2.08 2.17 2.17 2.07 1.97 1.92 1.93 1.90 1.87 1.90 1.95 1.93 1.82 1.74 1.66 1.54
1.76 1.73 1.73 1.72 1.81 1.88 1.89 1.81 1.85 1.81 1.65 1.61 1.61 1.59 1.56 1.54 1.37 1.25 1.19 1.21 1.35 1.42 1.32 1.35 1.52 1.49 1.58 1.73 1.90 1.93 2.01 2.05 1.95 1.80 1.79 1.88 1.78 1.73 1.68 1.61 1.54 1.47 1.36 1.32
1.71 1.65 1.66 1.78 1.89 2.02 2.07 1.91 1.75 1.75 1.77 1.72 1.71 1.70 1.63 1.62 1.54 1.47 1.42 1.37 1.50 1.59 1.56 1.53 1.42 1.41 1.53 1.78 1.92 1.85 1.86 1.91 1.89 1.79 1.76 1.75 1.69 1.62 1.47 1.43 1.42 1.41 1.36 1.35
1.83 1.78 1.84 1.89 1.87 1.95 2.05 1.93 1.71 1.68 1.68 1.67 1.68 1.69 1.64 1.64 1.60 1.63 1.69 1.62 1.52 1.51 1.46 1.50 1.40 1.39 1.43 1.65 1.79 1.77 1.74 1.72 1.75 1.72 1.71 1.71 1.66 1.58 1.47 1.46 1.43 1.38 1.31 1.26
1.96 1.88 1.86 1.87 1.75 1.74 1.85 1.86 1.63 1.50 1.49 1.54 1.57 1.53 1.57 1.59 1.63 1.65 1.63 1.65 1.62 1.62 1.42 1.38 1.40 1.43 1.43 1.47 1.50 1.67 1.73 1.65 1.59 1.53 1.53 1.49 1.51 1.53 1.46 1.39 1.32 1.19 1.12 1.10
1.93 1.83 1.69 1.70 1.70 1.67 1.62 1.56 1.46 1.43 1.47 1.52 1.59 1.67 1.69 1.61 1.61 1.78 1.79 1.55 1.49 1.46 1.37 1.35 1.35 1.28 1.20 1.22 1.37 1.50 1.60 1.59 1.56 1.46 1.41 1.37 1.30 1.30 1.28 1.23 1.15 1.09 1.07 1.05
1.64 1.69 1.62 1.53 1.58 1.59 1.57 1.52 1.45 1.41 1.42 1.49 1.57 1.69 1.81 1.83 1.76 1.71 1.71 1.65 1.47 1.31 1.18 1.16 1.12 1.05 1.04 1.03 1.21 1.34 1.45 1.46 1.43 1.33 1.23 1.19 1.09 1.07 1.11 1.11 1.06 1.03 1.01 0.98
1.42 1.37 1.42 1.48 1.51 1.60 1.59 1.49 1.44 1.36 1.39 1.48 1.48 1.60 1.79 1.89 1.92 1.79 1.55 1.36 1.29 1.18 1.05 1.03 1.06 1.06 1.00 1.00 1.14 1.30 1.40 1.40 1.39 1.30 1.18 1.12 1.04 1.00 1.03 1.04 1.01 0.98 0.93 0.89
1.41 1.37 1.44 1.51 1.48 1.55 1.56 1.53 1.56 1.52 1.55 1.64 1.63 1.63 1.67 1.60 1.57 1.54 1.46 1.34 1.22 1.17 1.06 1.04 1.04 1.01 0.99 1.10 1.19 1.27 1.34 1.32 1.31 1.25 1.12 1.05 0.97 0.96 1.02 1.02 0.97 0.96 0.88 0.82
1.43 1.44 1.50 1.57 1.60 1.59 1.57 1.58 1.60 1.64 1.74 1.88 2.02 1.96 1.86 1.76 1.67 1.52 1.37 1.30 1.21 1.14 1.15 1.13 1.04 0.97 1.00 1.13 1.23 1.28 1.28 1.24 1.15 1.08 1.07 1.02 0.96 0.97 1.01 0.97 0.90 0.85 0.79 0.76